Regional Weather Roundup
Issued by NWS

Home | Current Version | Previous Version | Text Only | Print | Product List | Glossary Off
Versions: 1 2 3 4 5 6 7 8 9 10 11 12 13 14 15 16 17 18 19 20 21 22 23 24 25 26 27 28 29 30 31 32 33 34 35 36 37 38 39 40 41 42 43 44 45 46 47 48 49 50

000
ASUS43 KMKX 252010
RWRWI

WISCONSIN REGIONAL WEATHER ROUNDUP
NATIONAL WEATHER SERVICE MILWAUKEE/SULLIVAN WI
300 PM CDT WED APR 25 2018

NOTE: "FAIR" INDICATES FEW OR NO CLOUDS BELOW 12,000 FEET WITH NO
SIGNIFICANT WEATHER AND/OR OBSTRUCTIONS TO VISIBILITY.

WIZ001-002-006>008-014>016-023>028-252100-
NORTHWEST WISCONSIN

CITY           SKY/WX    TMP DP  RH WIND       PRES   REMARKS
SUPERIOR ARPT  FAIR      56  23  28 S5        30.08F
ASHLAND        FAIR      52  26  36 NW6       30.10F
HAYWARD        FAIR      54  21  27 VRB5      30.09F
SIREN          FAIR      56  22  26 SW3       30.10F
CUMBERLAND     FAIR      50  23  34 NW3       30.11F
RICE LAKE      FAIR      53  27  37 SW3       30.13F
CHETEK         FAIR      53  28  37 N3        30.11F
LADYSMITH      FAIR      54  26  33 W3        30.12F
EAU CLAIRE     FAIR      56  27  32 NE3       30.10F
MENOMONIE      FAIR      57  22  26 N7        30.11F
NEW RICHMOND   FAIR      56  23  28 NW5       30.12F
OSCEOLA        FAIR      56  24  29 W3        30.14F
$$

WIZ003>005-009-010-017-018-252100-
NORTH CENTRAL WISCONSIN

CITY           SKY/WX    TMP DP  RH WIND       PRES   REMARKS
MANITOWISH WTR FAIR      48  21  34 CALM      30.07F
ARBOR VITAE    FAIR      52  24  34 N6        30.07F
WOODRUFF       FAIR      52  24  34 N6        30.07F
RHINELANDER    FAIR      51  24  34 MISG      30.08F
EAGLE RIVER    FAIR      49  19  30 NW7       30.07F
LAND O LAKES   FAIR      48  19  32 N7        30.09F
PHILLIPS       FAIR      52  23  32 CALM      30.08F
TOMAHAWK       FAIR      52  20  29 NE8       30.08F
MEDFORD        FAIR      51  29  42 NW9       30.09F
MERRILL        FAIR      53  26  34 N5        30.08F
$$

WIZ029-030-035-036-043>047-252100-
CENTRAL WISCONSIN

CITY           SKY/WX    TMP DP  RH WIND       PRES   REMARKS
WAUSAU         FAIR      53  25  33 W9        30.06F
MOSINEE        SUNNY     54  28  37 NW7       30.10F
MARSHFIELD     FAIR      53  30  41 NE6       30.08F
STEVENS POINT  FAIR      51  27  39 N6        30.09F
WAUPACA        FAIR      56  27  33 W10       30.09F
WAUTOMA        FAIR      55  26  32 W7        30.08F
WISC RAPIDS    FAIR      55  27  34 N13       30.10F
CAMP DOUGLAS   SUNNY     57  28  33 N7        30.08F
$$

WIZ011>013-019>022-031-037>040-048>050-252100-
NORTHEAST WISCONSIN

CITY           SKY/WX    TMP DP  RH WIND       PRES   REMARKS
ANTIGO         FAIR      50  28  42 N6        30.07F
SHAWANO        FAIR      56  28  33 E5        30.07F
OCONTO         FAIR      47  30  50 SE9       30.08F
STURGEON BAY   FAIR      47  28  47 N8        30.08F
GREEN BAY      FAIR      52  35  52 N10       30.08F
MANITOWOC      FAIR      49  30  48 N10       30.08F
APPLETON       MOSUNNY   52  27  37 NW9       30.08F
CLINTONVILLE   FAIR      54  26  33 W6        30.08F
OSHKOSH        FAIR      50  33  52 NE7       30.09F
$$

WIZ032>034-041-042-053>061-252100-
SOUTHWEST WISCONSIN

CITY           SKY/WX    TMP DP  RH WIND       PRES   REMARKS
LA CROSSE      FAIR      59  31  34 W9        30.09F
SPARTA         FAIR      58  27  31 NW3       30.09F
VIROQUA        FAIR      56  32  40 N6        30.09F
BOSCOBEL       FAIR      64  29  26 N9        30.07F
PRAIRIE DU CHI FAIR      60  22  23 NW9G17    30.08F
PLATTEVILLE    FAIR      60  32  34 N7        30.06F
$$

WIZ056-057-062-063-064-067-068-252100-
SOUTH CENTRAL WISCONSIN

CITY           SKY/WX    TMP DP  RH WIND       PRES   REMARKS
REEDSBURG      FAIR      56  29  35 N10       30.07F
BARABOO/DELLS  FAIR      56  23  27 NE8       30.07F
LONE ROCK      FAIR      61  29  29 NW10      30.07F
MINERAL POINT  FAIR      61  27  27 N7        30.06F
MADISON        FAIR      58  29  33 N12G20    30.06F
MIDDLETON      FAIR      60  27  29 N7        30.07F
WATERTOWN      FAIR      55  33  43 N9G17     30.06F
MONROE         FAIR      59  30  33 N6        30.05F
JANESVILLE     SUNNY     61  28  29 N8        30.06F
$$

WIZ051-052-058>065-066-070>072-252100-
SOUTHEAST WISCONSIN

CITY           SKY/WX    TMP DP  RH WIND       PRES   REMARKS
MILWAUKEE      FAIR      45  31  58 NE18G25   30.10S
WAUKESHA       SUNNY     54  27  35 N10G16    30.07F
MILWAUKEE/TIMM SUNNY     48  27  43 E10       30.09S
RACINE         FAIR      47  32  56 N15G23    30.10F
BURLINGTON     FAIR      57  26  30 N8        30.05F
KENOSHA        FAIR      51  31  46 NE15      30.08S
FOND DU LAC    FAIR      51  33  50 NE12      30.09F
SHEBOYGAN      FAIR      49  35  58 NE13      30.08F
WEST BEND      FAIR      52  32  46 N10G21    30.06F
JUNEAU         FAIR      53  31  43 N7G16     30.08F
$$

LSZ147-162-252100-
LAKE SUPERIOR

STATION/POSITION TIME  TEMP    WIND        PRES    WAVE
                       AIR SEA DIR/SP/G            HT/PER
                 (UTC) (F)     (DEG/KT/KT) (MB)    (FT/S)
DEVILS ISLAND    2000   45     160/  5/  7 1019.9F
SAXON HARBOR     1940   37      30/  2/  3 1020.0F
$$

LMZ867-665-643>646-252100-
LAKE MICHIGAN

STATION/POSITION TIME  TEMP    WIND        PRES    WAVE
                       AIR SEA DIR/SP/G            HT/PER
                 (UTC) (F)     (DEG/KT/KT) (MB)    (FT/S)
NORTHPORT PIER   1940   42                 1018.6F
KEWAUNEE LAKESHO 1942   44      80/  5/  8 1018.1F
SHEBOYGAN LAKESH 2000   38      50/ 11/ 12 1019.4F
PORT WASHINGTON  1930   42      40/ 13/ 16 1020.0F
MILWAUKEE LAKESH 1950   39      30/ 11/ 12   N/A
KENOSHA   LAKESH 2000   39                 1019.3
$$

TC  - TEMPERATURE IN CELSIUS
VSB - VISIBILITY IN STATUTE MILES
WCI - WIND CHILL INDEX
HX  - HEAT INDEX





USA.gov is the U.S. government's official web portal to all federal, state and local government web resources and services.